AEE712 LGAV-LEBL

Flight info

Callsign AEE712
Flight time 2h 49m
Altitude 36000
Route KOR UN604 ARA DCT DINOB DCT AGNIS DCT EPIKU DCT GINOX DCT KIFMI/N0425F280 DCT ELVOP DCT MUREN DCT CHELY DCT VERSO
Aircraft A20N/M-SDE2E3FGHIRWXY/LB1

Departure

Time 2026-05-07 20:15
Airport Athens Eleftherios Venizelos International Airport (LGAV)

Arrival

Time 2026-05-07 23:04
Airport Josep Tarradellas Barcelona-El Prat Airport (LEBL)
Time Latitude Longitude Altitude Speed Heading
2026-05-07 20:01 37.93655 23.94885 316 ft 0 kts 307°
2026-05-07 20:03 37.93648 23.94897 316 ft 2 kts 306°
2026-05-07 20:03 37.93640 23.94912 316 ft 2 kts 307°
2026-05-07 20:03 37.93631 23.94926 316 ft 2 kts 307°
2026-05-07 20:03 37.93622 23.94941 316 ft 2 kts 307°
2026-05-07 20:04 37.93613 23.94957 316 ft 2 kts 307°
2026-05-07 20:04 37.93608 23.94965 316 ft 1 kts 294°
2026-05-07 20:04 37.93608 23.94978 316 ft 1 kts 233°
2026-05-07 20:04 37.93612 23.94983 316 ft 1 kts 206°
2026-05-07 20:05 37.93617 23.94986 316 ft 0 kts 216°
2026-05-07 20:06 37.93615 23.94985 316 ft 0 kts 216°
2026-05-07 20:07 37.93611 23.94981 316 ft 1 kts 216°
2026-05-07 20:07 37.93593 23.94965 316 ft 3 kts 217°
2026-05-07 20:07 37.93557 23.94930 316 ft 9 kts 217°
2026-05-07 20:07 37.93494 23.94871 316 ft 12 kts 211°
2026-05-07 20:08 37.93426 23.94908 316 ft 12 kts 126°
2026-05-07 20:08 37.93383 23.95002 316 ft 12 kts 90°
2026-05-07 20:08 37.93442 23.95083 316 ft 13 kts 36°
2026-05-07 20:08 37.93518 23.95155 316 ft 13 kts 37°
2026-05-07 20:09 37.93596 23.95229 316 ft 14 kts 37°
2026-05-07 20:09 37.93677 23.95306 316 ft 14 kts 37°
2026-05-07 20:09 37.93759 23.95385 316 ft 15 kts 37°
2026-05-07 20:10 37.93930 23.95548 316 ft 15 kts 37°
2026-05-07 20:10 37.94017 23.95631 316 ft 15 kts 37°
2026-05-07 20:10 37.94106 23.95715 316 ft 16 kts 37°
2026-05-07 20:10 37.94196 23.95799 316 ft 16 kts 37°
2026-05-07 20:11 37.94286 23.95885 316 ft 16 kts 37°
2026-05-07 20:11 37.94378 23.95972 316 ft 16 kts 37°
2026-05-07 20:11 37.94470 23.96060 316 ft 16 kts 37°
2026-05-07 20:11 37.94562 23.96148 316 ft 16 kts 37°
2026-05-07 20:12 37.94656 23.96237 316 ft 16 kts 37°
2026-05-07 20:12 37.94750 23.96326 316 ft 16 kts 37°
2026-05-07 20:12 37.94844 23.96415 316 ft 16 kts 37°
2026-05-07 20:12 37.94939 23.96504 316 ft 17 kts 37°
2026-05-07 20:13 37.95032 23.96595 316 ft 17 kts 37°
2026-05-07 20:13 37.95127 23.96685 316 ft 17 kts 37°
2026-05-07 20:13 37.95222 23.96776 316 ft 17 kts 37°
2026-05-07 20:13 37.95298 23.96872 316 ft 14 kts 83°
2026-05-07 20:14 37.95251 23.96981 316 ft 10 kts 129°
2026-05-07 20:14 37.95206 23.97033 316 ft 7 kts 174°
2026-05-07 20:14 37.95158 23.96995 316 ft 9 kts 217°
2026-05-07 20:14 37.95044 23.96886 316 ft 48 kts 217°
2026-05-07 20:15 37.94575 23.96438 316 ft 117 kts 217°
2026-05-07 20:15 37.93758 23.95658 336 ft 170 kts 218°
2026-05-07 20:15 37.92804 23.94781 933 ft 170 kts 210°
2026-05-07 20:15 37.91765 23.94099 1723 ft 167 kts 205°
2026-05-07 20:16 37.90737 23.93503 2480 ft 164 kts 204°
2026-05-07 20:16 37.89723 23.92908 3190 ft 163 kts 205°
2026-05-07 20:16 37.88704 23.92285 3767 ft 170 kts 206°
2026-05-07 20:16 37.87592 23.91561 4201 ft 188 kts 207°
2026-05-07 20:17 37.86391 23.90749 4647 ft 205 kts 208°
2026-05-07 20:17 37.85064 23.89831 5005 ft 229 kts 208°
2026-05-07 20:17 37.83628 23.88824 5549 ft 245 kts 208°
2026-05-07 20:17 37.82135 23.87769 6313 ft 251 kts 208°
2026-05-07 20:18 37.80606 23.86688 7124 ft 255 kts 210°
2026-05-07 20:18 37.79221 23.85246 7734 ft 267 kts 234°
2026-05-07 20:18 37.78478 23.83075 8359 ft 278 kts 261°
2026-05-07 20:18 37.78574 23.80660 9182 ft 281 kts 282°
2026-05-07 20:19 37.78998 23.78269 10070 ft 280 kts 281°
2026-05-07 20:19 37.79402 23.75893 10797 ft 285 kts 281°
2026-05-07 20:19 37.79825 23.73386 11280 ft 298 kts 281°
2026-05-07 20:19 37.80266 23.70735 11624 ft 316 kts 281°
2026-05-07 20:20 37.80713 23.67964 11955 ft 333 kts 280°
2026-05-07 20:20 37.81177 23.65069 12553 ft 339 kts 281°
2026-05-07 20:20 37.81643 23.62165 13289 ft 341 kts 281°
2026-05-07 20:20 37.82117 23.59207 14006 ft 344 kts 281°
2026-05-07 20:21 37.82582 23.56283 14683 ft 346 kts 281°
2026-05-07 20:21 37.83055 23.53298 15331 ft 349 kts 281°
2026-05-07 20:21 37.83533 23.50299 15960 ft 352 kts 281°
2026-05-07 20:21 37.84020 23.47228 16577 ft 355 kts 281°
2026-05-07 20:22 37.84504 23.44160 17189 ft 358 kts 281°
2026-05-07 20:22 37.84987 23.41106 17780 ft 360 kts 281°
2026-05-07 20:22 37.85480 23.37972 18315 ft 364 kts 282°
2026-05-07 20:22 37.85970 23.34864 18870 ft 367 kts 281°
2026-05-07 20:23 37.86473 23.31671 19389 ft 370 kts 281°
2026-05-07 20:23 37.86972 23.28499 19937 ft 373 kts 281°
2026-05-07 20:23 37.87479 23.25271 20502 ft 375 kts 281°
2026-05-07 20:23 37.87981 23.22064 21022 ft 377 kts 281°
2026-05-07 20:24 37.88489 23.18811 21546 ft 379 kts 281°
2026-05-07 20:24 37.89002 23.15522 22043 ft 383 kts 281°
2026-05-07 20:24 37.89513 23.12226 22530 ft 386 kts 281°
2026-05-07 20:24 37.90031 23.08876 23029 ft 388 kts 281°
2026-05-07 20:25 37.90548 23.05523 23545 ft 390 kts 281°
2026-05-07 20:25 37.91065 23.02162 24102 ft 391 kts 281°
2026-05-07 20:25 37.91577 22.98831 24600 ft 392 kts 281°
2026-05-07 20:25 37.92100 22.95431 25128 ft 392 kts 281°
2026-05-07 20:26 37.92618 22.92056 25602 ft 393 kts 282°
2026-05-07 20:26 37.93141 22.88679 26040 ft 395 kts 282°
2026-05-07 20:26 37.93667 22.85284 26498 ft 395 kts 282°
2026-05-07 20:26 37.94193 22.81871 26914 ft 397 kts 282°
2026-05-07 20:27 37.94721 22.78438 27297 ft 399 kts 282°
2026-05-07 20:27 37.95252 22.74969 27710 ft 400 kts 282°
2026-05-07 20:27 37.95774 22.71542 28112 ft 400 kts 282°
2026-05-07 20:27 37.96299 22.68103 28490 ft 400 kts 282°
2026-05-07 20:28 37.96836 22.64653 28940 ft 398 kts 283°
2026-05-07 20:28 37.97393 22.61228 29417 ft 395 kts 283°
2026-05-07 20:28 37.97940 22.57876 29951 ft 390 kts 283°
2026-05-07 20:28 37.98487 22.54519 30480 ft 385 kts 282°
2026-05-07 20:29 37.99019 22.51251 30932 ft 382 kts 283°
2026-05-07 20:29 37.99548 22.47965 31266 ft 382 kts 282°
2026-05-07 20:29 38.00080 22.44685 31623 ft 380 kts 282°
2026-05-07 20:29 38.00601 22.41429 32026 ft 377 kts 283°
2026-05-07 20:30 38.01120 22.38188 32365 ft 376 kts 282°
2026-05-07 20:30 38.01637 22.34958 32685 ft 375 kts 282°
2026-05-07 20:30 38.02155 22.31707 33029 ft 374 kts 282°
2026-05-07 20:30 38.02667 22.28494 33378 ft 372 kts 281°
2026-05-07 20:31 38.03173 22.25323 33732 ft 370 kts 282°
2026-05-07 20:31 38.03677 22.22119 34079 ft 369 kts 282°
2026-05-07 20:31 38.04179 22.18945 34373 ft 369 kts 282°
2026-05-07 20:31 38.04679 22.15788 34630 ft 369 kts 282°
2026-05-07 20:32 38.05181 22.12590 34876 ft 370 kts 282°
2026-05-07 20:32 38.05686 22.09394 35102 ft 370 kts 282°
2026-05-07 20:32 38.06186 22.06197 35346 ft 370 kts 282°
2026-05-07 20:32 38.06680 22.03029 35545 ft 371 kts 282°
2026-05-07 20:33 38.07188 21.99796 35730 ft 372 kts 282°
2026-05-07 20:33 38.07686 21.96610 35922 ft 372 kts 282°
2026-05-07 20:33 38.08187 21.93389 36128 ft 372 kts 283°
2026-05-07 20:34 38.09187 21.86959 36161 ft 373 kts 282°
2026-05-07 20:34 38.10180 21.80561 36150 ft 372 kts 282°
2026-05-07 20:35 38.11176 21.74115 36134 ft 372 kts 282°
2026-05-07 20:35 38.12160 21.67707 36124 ft 372 kts 282°
2026-05-07 20:36 38.13135 21.61319 36119 ft 363 kts 282°
2026-05-07 20:36 38.14085 21.55051 36110 ft 360 kts 282°
2026-05-07 20:37 38.15031 21.48827 36108 ft 359 kts 282°
2026-05-07 20:37 38.16089 21.42632 36107 ft 358 kts 285°
2026-05-07 20:38 38.17501 21.36584 36105 ft 358 kts 287°
2026-05-07 20:38 38.18966 21.30567 36111 ft 358 kts 287°
2026-05-07 20:39 38.20431 21.24541 36102 ft 356 kts 287°
2026-05-07 20:39 38.21888 21.18533 36103 ft 356 kts 287°
2026-05-07 20:40 38.23334 21.12544 36095 ft 357 kts 287°
2026-05-07 20:40 38.24785 21.06544 36092 ft 356 kts 287°
2026-05-07 20:41 38.26233 21.00525 36089 ft 356 kts 287°
2026-05-07 20:41 38.27674 20.94535 36080 ft 355 kts 286°
2026-05-07 20:42 38.29105 20.88541 36085 ft 356 kts 286°
2026-05-07 20:42 38.30540 20.82538 36083 ft 355 kts 287°
2026-05-07 20:43 38.31977 20.76525 36075 ft 356 kts 287°
2026-05-07 20:43 38.33421 20.70461 36074 ft 365 kts 286°
2026-05-07 20:44 38.34894 20.64245 36074 ft 368 kts 286°
2026-05-07 20:44 38.36363 20.58034 36077 ft 368 kts 286°
2026-05-07 20:45 38.37833 20.51794 36078 ft 368 kts 286°
2026-05-07 20:45 38.39295 20.45585 36070 ft 368 kts 286°
2026-05-07 20:46 38.40765 20.39320 36061 ft 369 kts 286°
2026-05-07 20:46 38.42224 20.33092 36063 ft 369 kts 285°
2026-05-07 20:47 38.43679 20.26857 36056 ft 368 kts 285°
2026-05-07 20:47 38.45133 20.20610 36045 ft 368 kts 285°
2026-05-07 20:48 38.46580 20.14368 36042 ft 368 kts 285°
2026-05-07 20:48 38.48031 20.08116 36041 ft 368 kts 285°
2026-05-07 20:49 38.49470 20.01871 36040 ft 368 kts 285°
2026-05-07 20:49 38.50910 19.95623 36037 ft 368 kts 285°
2026-05-07 20:50 38.52348 19.89381 36035 ft 368 kts 285°
2026-05-07 20:50 38.53783 19.83111 36025 ft 368 kts 284°
2026-05-07 20:51 38.55204 19.76889 36026 ft 368 kts 284°
2026-05-07 20:51 38.56624 19.70643 36018 ft 367 kts 284°
2026-05-07 20:52 38.58049 19.64378 36017 ft 368 kts 284°
2026-05-07 20:52 38.59470 19.58095 36014 ft 368 kts 284°
2026-05-07 20:53 38.60880 19.51859 36006 ft 367 kts 284°
2026-05-07 20:53 38.62293 19.45594 36004 ft 367 kts 284°
2026-05-07 20:54 38.63700 19.39317 36002 ft 367 kts 284°
2026-05-07 20:54 38.65104 19.33060 35998 ft 368 kts 283°
2026-05-07 20:55 38.66505 19.26783 35988 ft 368 kts 283°
2026-05-07 20:55 38.67902 19.20503 35995 ft 368 kts 283°
2026-05-07 20:56 38.69295 19.14224 35991 ft 368 kts 283°
2026-05-07 20:56 38.70683 19.07946 35984 ft 368 kts 283°
2026-05-07 20:57 38.72080 19.01648 35987 ft 369 kts 283°
2026-05-07 20:57 38.73721 18.95429 35980 ft 370 kts 285°
2026-05-07 20:58 38.75429 18.89257 35973 ft 370 kts 285°
2026-05-07 20:58 38.77141 18.83039 35981 ft 371 kts 286°
2026-05-07 20:59 38.78852 18.76836 35988 ft 371 kts 285°
2026-05-07 20:59 38.80564 18.70590 35985 ft 371 kts 285°
2026-05-07 21:00 38.82273 18.64345 35987 ft 372 kts 285°
2026-05-07 21:00 38.83967 18.58149 35990 ft 372 kts 285°
2026-05-07 21:01 38.85669 18.51909 35991 ft 372 kts 285°
2026-05-07 21:01 38.87372 18.45644 35988 ft 372 kts 285°
2026-05-07 21:02 38.89062 18.39413 35986 ft 370 kts 285°
2026-05-07 21:02 38.90751 18.33163 35991 ft 371 kts 284°
2026-05-07 21:03 38.92435 18.26920 35984 ft 372 kts 284°
2026-05-07 21:03 38.94117 18.20677 35983 ft 371 kts 284°
2026-05-07 21:04 38.95794 18.14424 35982 ft 372 kts 284°
2026-05-07 21:04 38.97478 18.08138 35982 ft 372 kts 284°
2026-05-07 21:05 38.99148 18.01888 35980 ft 372 kts 284°
2026-05-07 21:05 39.00832 17.95561 35980 ft 373 kts 284°
2026-05-07 21:06 39.02507 17.89270 35983 ft 374 kts 283°
2026-05-07 21:06 39.04168 17.82991 35981 ft 373 kts 284°
2026-05-07 21:07 39.05840 17.76678 35980 ft 374 kts 284°
2026-05-07 21:07 39.07506 17.70358 35978 ft 374 kts 284°
2026-05-07 21:08 39.09164 17.64059 35976 ft 374 kts 283°
2026-05-07 21:08 39.10837 17.57692 35973 ft 374 kts 283°
2026-05-07 21:09 39.12492 17.51367 35972 ft 374 kts 283°
2026-05-07 21:09 39.14147 17.45037 35970 ft 375 kts 283°
2026-05-07 21:10 39.15797 17.38695 35969 ft 374 kts 283°
2026-05-07 21:10 39.17447 17.32348 35971 ft 374 kts 283°
2026-05-07 21:11 39.19085 17.26030 35968 ft 374 kts 282°
2026-05-07 21:11 39.21550 17.16494 35967 ft 374 kts 282°
2026-05-07 21:12 39.23188 17.10140 35967 ft 375 kts 282°
2026-05-07 21:12 39.24829 17.03749 35965 ft 376 kts 282°
2026-05-07 21:13 39.26461 16.97374 35966 ft 376 kts 282°
2026-05-07 21:13 39.28093 16.90980 35967 ft 376 kts 282°
2026-05-07 21:14 39.29724 16.84586 35974 ft 376 kts 283°
2026-05-07 21:14 39.31346 16.78216 35969 ft 375 kts 282°
2026-05-07 21:15 39.32963 16.71831 35977 ft 376 kts 282°
2026-05-07 21:15 39.34586 16.65425 35981 ft 376 kts 282°
2026-05-07 21:16 39.36200 16.59018 35983 ft 376 kts 282°
2026-05-07 21:16 39.37810 16.52611 35988 ft 377 kts 282°
2026-05-07 21:17 39.39418 16.46211 35988 ft 377 kts 282°
2026-05-07 21:17 39.41018 16.39796 35987 ft 376 kts 282°
2026-05-07 21:18 39.42625 16.33368 35983 ft 376 kts 281°
2026-05-07 21:18 39.44231 16.26920 35969 ft 378 kts 281°
2026-05-07 21:19 39.45828 16.20490 35961 ft 377 kts 281°
2026-05-07 21:19 39.47421 16.14056 35970 ft 378 kts 281°
2026-05-07 21:20 39.49021 16.07577 35960 ft 378 kts 281°
2026-05-07 21:20 39.50605 16.01135 35974 ft 378 kts 281°
2026-05-07 21:21 39.52203 15.94626 35966 ft 379 kts 281°
2026-05-07 21:21 39.53792 15.88141 35957 ft 379 kts 281°
2026-05-07 21:22 39.55364 15.81695 35954 ft 379 kts 281°
2026-05-07 21:22 39.56951 15.75188 35952 ft 379 kts 281°
2026-05-07 21:23 39.58528 15.68700 35942 ft 380 kts 281°
2026-05-07 21:23 39.60103 15.62196 35937 ft 380 kts 280°
2026-05-07 21:24 39.61686 15.55642 35938 ft 382 kts 281°
2026-05-07 21:24 39.63258 15.49115 35938 ft 381 kts 281°
2026-05-07 21:25 39.64823 15.42583 35937 ft 381 kts 280°
2026-05-07 21:25 39.66394 15.36031 35931 ft 382 kts 280°
2026-05-07 21:26 39.67962 15.29477 35931 ft 381 kts 279°
2026-05-07 21:26 39.69522 15.22922 35929 ft 382 kts 280°
2026-05-07 21:27 39.71086 15.16338 35925 ft 383 kts 280°
2026-05-07 21:27 39.72646 15.09747 35922 ft 383 kts 280°
2026-05-07 21:28 39.74204 15.03145 35923 ft 384 kts 280°
2026-05-07 21:28 39.75758 14.96534 35923 ft 384 kts 280°
2026-05-07 21:29 39.77319 14.89888 35918 ft 386 kts 279°
2026-05-07 21:29 39.78874 14.83215 35928 ft 385 kts 279°
2026-05-07 21:30 39.80420 14.76583 35926 ft 388 kts 279°
2026-05-07 21:30 39.81759 14.69859 35929 ft 384 kts 277°
2026-05-07 21:31 39.83039 14.63099 35922 ft 384 kts 277°
2026-05-07 21:31 39.84307 14.56378 35929 ft 385 kts 277°
2026-05-07 21:32 39.85571 14.49647 35933 ft 387 kts 276°
2026-05-07 21:32 39.86841 14.42860 35925 ft 387 kts 277°
2026-05-07 21:33 39.88103 14.36068 35929 ft 388 kts 276°
2026-05-07 21:33 39.89366 14.29252 35933 ft 389 kts 276°
2026-05-07 21:34 39.90622 14.22442 35937 ft 388 kts 276°
2026-05-07 21:34 39.91887 14.15571 35938 ft 391 kts 276°
2026-05-07 21:35 39.93141 14.08746 35931 ft 391 kts 276°
2026-05-07 21:35 39.94397 14.01854 35946 ft 391 kts 276°
2026-05-07 21:36 39.95651 13.94967 35940 ft 391 kts 277°
2026-05-07 21:36 39.96901 13.88082 35937 ft 394 kts 277°
2026-05-07 21:37 39.98157 13.81134 35924 ft 394 kts 277°
2026-05-07 21:37 39.99406 13.74190 35942 ft 397 kts 277°
2026-05-07 21:38 40.00653 13.67237 35653 ft 396 kts 277°
2026-05-07 21:38 40.01278 13.63742 35796 ft 396 kts 277°
2026-05-07 21:38 40.01899 13.60267 35874 ft 397 kts 277°
2026-05-07 21:39 40.03150 13.53255 35915 ft 398 kts 277°
2026-05-07 21:39 40.04389 13.46277 35923 ft 398 kts 276°
2026-05-07 21:40 40.05628 13.39244 35918 ft 399 kts 277°
2026-05-07 21:40 40.06872 13.32192 35917 ft 399 kts 276°
2026-05-07 21:41 40.08104 13.25163 35919 ft 400 kts 276°
2026-05-07 21:41 40.09344 13.18062 35917 ft 401 kts 277°
2026-05-07 21:42 40.10578 13.10988 35908 ft 402 kts 276°
2026-05-07 21:42 40.11808 13.03902 35921 ft 403 kts 276°
2026-05-07 21:43 40.13038 12.96782 35923 ft 403 kts 276°
2026-05-07 21:43 40.14264 12.89658 35919 ft 404 kts 277°
2026-05-07 21:44 40.15493 12.82498 35914 ft 404 kts 276°
2026-05-07 21:44 40.16709 12.75383 35922 ft 404 kts 276°
2026-05-07 21:45 40.17926 12.68221 35918 ft 406 kts 276°
2026-05-07 21:45 40.19148 12.61007 35915 ft 406 kts 276°
2026-05-07 21:46 40.20358 12.53825 35928 ft 406 kts 276°
2026-05-07 21:46 40.21564 12.46645 35924 ft 406 kts 277°
2026-05-07 21:47 40.22765 12.39467 35919 ft 407 kts 277°
2026-05-07 21:47 40.23970 12.32226 35930 ft 407 kts 276°
2026-05-07 21:48 40.25167 12.25011 35921 ft 408 kts 276°
2026-05-07 21:48 40.26373 12.17726 35924 ft 409 kts 276°
2026-05-07 21:49 40.27561 12.10490 35926 ft 410 kts 276°
2026-05-07 21:49 40.28760 12.03182 35928 ft 411 kts 276°
2026-05-07 21:50 40.29948 11.95916 35924 ft 410 kts 276°
2026-05-07 21:50 40.31131 11.88629 35936 ft 411 kts 276°
2026-05-07 21:51 40.32318 11.81294 35930 ft 412 kts 276°
2026-05-07 21:51 40.33497 11.73982 35939 ft 411 kts 276°
2026-05-07 21:52 40.34663 11.66712 35945 ft 413 kts 276°
2026-05-07 21:52 40.35837 11.59355 35941 ft 413 kts 276°
2026-05-07 21:53 40.37010 11.51988 35943 ft 414 kts 276°
2026-05-07 21:53 40.38179 11.44607 35944 ft 415 kts 276°
2026-05-07 21:54 40.39341 11.37236 35939 ft 415 kts 276°
2026-05-07 21:54 40.40505 11.29830 35940 ft 415 kts 275°
2026-05-07 21:55 40.41660 11.22439 35939 ft 414 kts 276°
2026-05-07 21:55 40.42806 11.15084 35940 ft 415 kts 275°
2026-05-07 21:56 40.43955 11.07653 35941 ft 415 kts 275°
2026-05-07 21:56 40.45097 11.00248 35942 ft 416 kts 276°
2026-05-07 21:57 40.46235 10.92842 35943 ft 416 kts 276°
2026-05-07 21:57 40.47364 10.85455 35947 ft 416 kts 275°
2026-05-07 21:58 40.48499 10.77999 35951 ft 416 kts 276°
2026-05-07 21:58 40.49621 10.70595 35952 ft 416 kts 275°
2026-05-07 21:59 40.50736 10.63200 35950 ft 416 kts 276°
2026-05-07 21:59 40.51855 10.55744 35951 ft 416 kts 276°
2026-05-07 22:00 40.52962 10.48344 35954 ft 416 kts 275°
2026-05-07 22:00 40.54073 10.40866 35953 ft 416 kts 276°
2026-05-07 22:01 40.55174 10.33434 35958 ft 416 kts 275°
2026-05-07 22:01 40.56269 10.26004 35948 ft 416 kts 275°
2026-05-07 22:02 40.57357 10.18586 35956 ft 415 kts 275°
2026-05-07 22:02 40.58445 10.11128 35952 ft 415 kts 275°
2026-05-07 22:03 40.59521 10.03725 35951 ft 415 kts 275°
2026-05-07 22:03 40.60596 9.96302 35952 ft 415 kts 275°
2026-05-07 22:04 40.61669 9.88837 35952 ft 416 kts 275°
2026-05-07 22:04 40.62734 9.81402 35956 ft 416 kts 275°
2026-05-07 22:05 40.63803 9.73906 35953 ft 416 kts 275°
2026-05-07 22:05 40.64856 9.66482 35963 ft 416 kts 275°
2026-05-07 22:06 40.65910 9.59015 35964 ft 416 kts 275°
2026-05-07 22:06 40.66954 9.51580 35962 ft 416 kts 275°
2026-05-07 22:07 40.68004 9.44070 35965 ft 416 kts 276°
2026-05-07 22:07 40.69040 9.36618 35965 ft 416 kts 276°
2026-05-07 22:08 40.70074 9.29153 35965 ft 416 kts 275°
2026-05-07 22:08 40.71103 9.21675 35961 ft 416 kts 275°
2026-05-07 22:09 40.72126 9.14214 35965 ft 416 kts 275°
2026-05-07 22:09 40.73150 9.06708 35960 ft 416 kts 275°
2026-05-07 22:10 40.74165 8.99229 35964 ft 416 kts 275°
2026-05-07 22:10 40.75175 8.91759 35960 ft 416 kts 275°
2026-05-07 22:11 40.76175 8.84305 35957 ft 416 kts 275°
2026-05-07 22:11 40.77176 8.76799 35956 ft 416 kts 275°
2026-05-07 22:12 40.78170 8.69328 35965 ft 416 kts 275°
2026-05-07 22:12 40.79158 8.61843 35956 ft 416 kts 275°
2026-05-07 22:13 40.80142 8.54351 35962 ft 416 kts 275°
2026-05-07 22:13 40.81124 8.46827 35948 ft 416 kts 275°
2026-05-07 22:14 40.82103 8.39318 35939 ft 416 kts 275°
2026-05-07 22:14 40.83069 8.31838 35948 ft 416 kts 274°
2026-05-07 22:15 40.84035 8.24325 35936 ft 416 kts 274°
2026-05-07 22:15 40.84989 8.16864 35947 ft 416 kts 274°
2026-05-07 22:16 40.85789 8.09331 35937 ft 414 kts 270°
2026-05-07 22:16 40.86169 8.01764 35930 ft 415 kts 269°
2026-05-07 22:17 40.86626 7.94167 35938 ft 416 kts 270°
2026-05-07 22:17 40.87169 7.86613 35942 ft 415 kts 271°
2026-05-07 22:18 40.87959 7.75261 35935 ft 415 kts 270°
2026-05-07 22:19 40.88475 7.67671 35926 ft 415 kts 271°
2026-05-07 22:19 40.88979 7.60122 35941 ft 416 kts 271°
2026-05-07 22:20 40.89484 7.52500 35939 ft 416 kts 271°
2026-05-07 22:20 40.89981 7.44924 35929 ft 415 kts 271°
2026-05-07 22:21 40.90471 7.37357 35932 ft 416 kts 271°
2026-05-07 22:21 40.90958 7.29776 35936 ft 416 kts 270°
2026-05-07 22:22 40.91441 7.22172 35961 ft 415 kts 270°
2026-05-07 22:22 40.91917 7.14635 35967 ft 415 kts 270°
2026-05-07 22:23 40.92388 7.07062 35957 ft 414 kts 270°
2026-05-07 22:23 40.92852 6.99486 35954 ft 414 kts 270°
2026-05-07 22:24 40.93310 6.91936 35934 ft 414 kts 270°
2026-05-07 22:24 40.93766 6.84355 35933 ft 414 kts 270°
2026-05-07 22:25 40.94216 6.76797 35933 ft 414 kts 270°
2026-05-07 22:25 40.94663 6.69241 35935 ft 415 kts 270°
2026-05-07 22:26 40.95105 6.61639 35938 ft 414 kts 270°
2026-05-07 22:26 40.95538 6.54095 35942 ft 415 kts 270°
2026-05-07 22:27 40.95970 6.46496 35942 ft 414 kts 270°
2026-05-07 22:27 40.96391 6.38967 35943 ft 415 kts 270°
2026-05-07 22:28 40.96816 6.31346 35953 ft 415 kts 269°
2026-05-07 22:28 40.97231 6.23772 35954 ft 415 kts 270°
2026-05-07 22:29 40.97644 6.16180 35961 ft 415 kts 270°
2026-05-07 22:29 40.98047 6.08630 35951 ft 415 kts 269°
2026-05-07 22:30 40.98451 6.00995 35960 ft 415 kts 269°
2026-05-07 22:30 40.98848 5.93391 35976 ft 415 kts 270°
2026-05-07 22:31 40.99237 5.85805 35988 ft 415 kts 270°
2026-05-07 22:31 40.99623 5.78221 35977 ft 415 kts 270°
2026-05-07 22:32 41.00007 5.70580 35977 ft 415 kts 270°
2026-05-07 22:32 41.00380 5.63027 35703 ft 416 kts 269°
2026-05-07 22:32 41.00569 5.59194 35508 ft 416 kts 269°
2026-05-07 22:33 41.00754 5.55387 35321 ft 416 kts 269°
2026-05-07 22:33 41.00936 5.51610 35136 ft 416 kts 269°
2026-05-07 22:33 41.01117 5.47804 34913 ft 416 kts 269°
2026-05-07 22:33 41.01296 5.44006 34701 ft 416 kts 269°
2026-05-07 22:34 41.01478 5.40187 34536 ft 416 kts 269°
2026-05-07 22:34 41.01666 5.36362 34358 ft 416 kts 269°
2026-05-07 22:34 41.01868 5.32551 34178 ft 417 kts 269°
2026-05-07 22:34 41.02073 5.28710 33999 ft 417 kts 269°
2026-05-07 22:35 41.02274 5.24905 33817 ft 417 kts 269°
2026-05-07 22:35 41.02470 5.21113 33643 ft 418 kts 269°
2026-05-07 22:35 41.02669 5.17244 33458 ft 419 kts 269°
2026-05-07 22:35 41.02865 5.13446 33289 ft 420 kts 269°
2026-05-07 22:36 41.03062 5.09566 33111 ft 420 kts 269°
2026-05-07 22:36 41.03254 5.05730 32992 ft 421 kts 269°
2026-05-07 22:36 41.03446 5.01880 32988 ft 421 kts 269°
2026-05-07 22:37 41.03828 4.94149 32987 ft 421 kts 269°
2026-05-07 22:37 41.04205 4.86430 32970 ft 421 kts 269°
2026-05-07 22:38 41.04583 4.78750 32970 ft 421 kts 270°
2026-05-07 22:38 41.05309 4.71006 32968 ft 424 kts 274°
2026-05-07 22:39 41.06122 4.63326 32972 ft 424 kts 274°
2026-05-07 22:39 41.06964 4.55612 32968 ft 424 kts 274°
2026-05-07 22:40 41.07796 4.47908 32963 ft 424 kts 274°
2026-05-07 22:40 41.08629 4.40194 32967 ft 424 kts 274°
2026-05-07 22:41 41.09452 4.32473 32965 ft 424 kts 273°
2026-05-07 22:41 41.10263 4.24794 32957 ft 420 kts 273°
2026-05-07 22:41 41.10665 4.20990 32733 ft 416 kts 273°
2026-05-07 22:42 41.11058 4.17227 32118 ft 416 kts 274°
2026-05-07 22:42 41.11448 4.13441 31544 ft 417 kts 274°
2026-05-07 22:42 41.11846 4.09606 30974 ft 421 kts 274°
2026-05-07 22:42 41.12242 4.05781 30171 ft 426 kts 274°
2026-05-07 22:43 41.12641 4.01892 29306 ft 429 kts 274°
2026-05-07 22:43 41.13043 3.97998 28526 ft 428 kts 275°
2026-05-07 22:43 41.13446 3.94073 28104 ft 430 kts 274°
2026-05-07 22:43 41.13842 3.90187 27698 ft 432 kts 275°
2026-05-07 22:44 41.14247 3.86198 27285 ft 433 kts 275°
2026-05-07 22:44 41.14476 3.82262 26857 ft 428 kts 266°
2026-05-07 22:44 41.14357 3.78391 26194 ft 425 kts 264°
2026-05-07 22:44 41.14154 3.74470 25247 ft 427 kts 263°
2026-05-07 22:45 41.13953 3.70581 24564 ft 423 kts 264°
2026-05-07 22:45 41.13771 3.66729 24001 ft 417 kts 264°
2026-05-07 22:45 41.13607 3.62959 23394 ft 413 kts 265°
2026-05-07 22:45 41.13451 3.59148 22748 ft 410 kts 265°
2026-05-07 22:46 41.13305 3.55451 22143 ft 406 kts 265°
2026-05-07 22:46 41.13159 3.51714 21527 ft 403 kts 265°
2026-05-07 22:46 41.13016 3.48065 20914 ft 400 kts 265°
2026-05-07 22:46 41.12873 3.44374 20310 ft 397 kts 265°
2026-05-07 22:47 41.12733 3.40751 19708 ft 393 kts 266°
2026-05-07 22:47 41.12593 3.37169 19113 ft 390 kts 266°
2026-05-07 22:47 41.12452 3.33634 18548 ft 387 kts 265°
2026-05-07 22:47 41.12311 3.30088 17986 ft 383 kts 266°
2026-05-07 22:48 41.12171 3.26604 17397 ft 380 kts 266°
2026-05-07 22:48 41.12032 3.23148 16837 ft 377 kts 266°
2026-05-07 22:48 41.11890 3.19670 16266 ft 374 kts 266°
2026-05-07 22:48 41.11751 3.16277 15725 ft 372 kts 266°
2026-05-07 22:49 41.11610 3.12846 15118 ft 370 kts 266°
2026-05-07 22:49 41.11469 3.09453 14512 ft 369 kts 266°
2026-05-07 22:49 41.11329 3.06121 13956 ft 367 kts 266°
2026-05-07 22:49 41.11187 3.02742 13379 ft 365 kts 266°
2026-05-07 22:50 41.11046 2.99415 12802 ft 363 kts 266°
2026-05-07 22:50 41.10903 2.96120 12218 ft 362 kts 266°
2026-05-07 22:50 41.10758 2.92772 11622 ft 360 kts 266°
2026-05-07 22:50 41.10615 2.89486 11070 ft 358 kts 266°
2026-05-07 22:51 41.10471 2.86201 10517 ft 356 kts 266°
2026-05-07 22:51 41.10315 2.82978 9963 ft 354 kts 266°
2026-05-07 22:51 41.10148 2.79727 9424 ft 352 kts 266°
2026-05-07 22:51 41.09981 2.76546 9193 ft 340 kts 266°
2026-05-07 22:52 41.09821 2.73483 8982 ft 328 kts 266°
2026-05-07 22:52 41.09668 2.70562 8772 ft 317 kts 266°
2026-05-07 22:52 41.09515 2.67673 8578 ft 306 kts 266°
2026-05-07 22:52 41.09369 2.64913 8401 ft 296 kts 266°
2026-05-07 22:53 41.09227 2.62248 8190 ft 288 kts 266°
2026-05-07 22:53 41.09089 2.59648 7860 ft 285 kts 266°
2026-05-07 22:53 41.08948 2.57027 7485 ft 283 kts 266°
2026-05-07 22:53 41.08809 2.54454 7100 ft 282 kts 266°
2026-05-07 22:54 41.08669 2.51874 6725 ft 280 kts 266°
2026-05-07 22:54 41.08529 2.49306 6355 ft 279 kts 266°
2026-05-07 22:54 41.08391 2.46772 5984 ft 277 kts 266°
2026-05-07 22:54 41.08252 2.44226 5607 ft 276 kts 266°
2026-05-07 22:55 41.08235 2.41710 5234 ft 275 kts 274°
2026-05-07 22:55 41.08414 2.39197 4875 ft 273 kts 276°
2026-05-07 22:55 41.08620 2.36702 4512 ft 272 kts 276°
2026-05-07 22:55 41.08814 2.34218 4137 ft 271 kts 275°
2026-05-07 22:56 41.08991 2.31740 3769 ft 270 kts 275°
2026-05-07 22:56 41.09158 2.29248 3406 ft 269 kts 275°
2026-05-07 22:56 41.09317 2.26787 3074 ft 266 kts 274°
2026-05-07 22:56 41.09466 2.24394 2907 ft 257 kts 274°
2026-05-07 22:57 41.09610 2.22074 2742 ft 249 kts 274°
2026-05-07 22:57 41.09748 2.19830 2581 ft 240 kts 274°
2026-05-07 22:57 41.09881 2.17649 2386 ft 235 kts 274°
2026-05-07 22:57 41.10009 2.15513 2111 ft 233 kts 275°
2026-05-07 22:58 41.10137 2.13404 1975 ft 231 kts 275°
2026-05-07 22:58 41.10266 2.11262 1968 ft 233 kts 275°
2026-05-07 22:58 41.10395 2.09132 1966 ft 233 kts 275°
2026-05-07 22:58 41.10525 2.06977 1965 ft 233 kts 275°
2026-05-07 22:59 41.10650 2.04911 1953 ft 219 kts 275°
2026-05-07 22:59 41.10818 2.02981 1940 ft 204 kts 288°
2026-05-07 22:59 41.11600 2.01570 1974 ft 189 kts 332°
2026-05-07 22:59 41.12867 2.01191 2000 ft 185 kts
2026-05-07 23:00 41.14077 2.01663 1993 ft 183 kts 22°
2026-05-07 23:00 41.15273 2.02259 1975 ft 182 kts 22°
2026-05-07 23:00 41.16434 2.02826 1952 ft 170 kts 22°
2026-05-07 23:00 41.17508 2.03335 1947 ft 162 kts 21°
2026-05-07 23:01 41.18551 2.03821 1970 ft 154 kts 21°
2026-05-07 23:01 41.19519 2.04266 1848 ft 139 kts 21°
2026-05-07 23:01 41.20418 2.04676 1700 ft 134 kts 21°
2026-05-07 23:01 41.21301 2.05081 1544 ft 133 kts 21°
2026-05-07 23:02 41.22183 2.05485 1373 ft 133 kts 21°
2026-05-07 23:02 41.23052 2.05881 1201 ft 133 kts 21°
2026-05-07 23:02 41.23925 2.06280 1023 ft 132 kts 20°
2026-05-07 23:02 41.24802 2.06680 844 ft 132 kts 20°
2026-05-07 23:03 41.25661 2.07071 670 ft 132 kts 20°
2026-05-07 23:03 41.26534 2.07469 491 ft 131 kts 20°
2026-05-07 23:03 41.27392 2.07862 334 ft 131 kts 19°
2026-05-07 23:03 41.28258 2.08245 170 ft 130 kts 19°
2026-05-07 23:04 41.29105 2.08636 25 ft 125 kts 19°
2026-05-07 23:04 41.29804 2.08953 23 ft 81 kts 19°
2026-05-07 23:04 41.30017 2.09051 23 ft 10 kts 19°
2026-05-07 23:04 41.30090 2.09084 23 ft 11 kts 19°
2026-05-07 23:05 41.30123 2.09040 23 ft 11 kts 242°
2026-05-07 23:05 41.30082 2.08940 23 ft 12 kts 242°
2026-05-07 23:05 41.30040 2.08827 23 ft 14 kts 244°
2026-05-07 23:05 41.29985 2.08709 23 ft 15 kts 227°
2026-05-07 23:06 41.29905 2.08605 23 ft 16 kts 221°
2026-05-07 23:06 41.29814 2.08515 23 ft 16 kts 215°
2026-05-07 23:06 41.29722 2.08418 23 ft 16 kts 234°
2026-05-07 23:06 41.29670 2.08279 23 ft 17 kts 245°
2026-05-07 23:07 41.29575 2.08254 23 ft 15 kts 154°
2026-05-07 23:07 41.29479 2.08313 23 ft 15 kts 155°
2026-05-07 23:07 41.29378 2.08373 23 ft 15 kts 156°
2026-05-07 23:07 41.29281 2.08429 23 ft 14 kts 157°
2026-05-07 23:08 41.29182 2.08440 23 ft 14 kts 194°
2026-05-07 23:08 41.29091 2.08395 23 ft 13 kts 199°
2026-05-07 23:08 41.29031 2.08306 23 ft 13 kts 245°
2026-05-07 23:08 41.29005 2.08211 23 ft 7 kts 280°
2026-05-07 23:09 41.29040 2.08181 23 ft 4 kts 338°
2026-05-07 23:09 41.29065 2.08165 23 ft 2 kts 336°
2026-05-07 23:09 41.29073 2.08161 23 ft 0 kts 337°